Home   Weather   Neumünster   Past weeks

Flag for Germany Past Weather in Neumünster, Schleswig-Holstein, Germany — Yesterday and Last 2 Weeks

Now
43 °F

Broken clouds.


Feels Like: 35 °F
Forecast: 36 / 46 °F
Wind: 16 mph from Southwest

Location: Kiel / Holtenau Civilian

Current Time: Apr 24, 2017 at 9:27:03 am

Latest Report: Apr 24, 2017 at 8:50 am


Visibility: N/A

Pressure: 29.83 "Hg

Humidity: 76%

Dew Point: 36 °F

Location of NeumünsterLocation

Past Weather in Neumünster — Graph

°F

Neumünster Temperature Yesterday

Maximum temperature yesterday: 46 °F (at 1:20 pm)
Minimum temperature yesterday: 39 °F (at 8:20 am)
Average temperature yesterday: 44 °F

High & Low Weather Summary for the Past Weeks

 TemperatureHumidityPressure
High64 °F (Apr 9, 4:50 pm)100% (Apr 9, 8:20 am)30.63 "Hg (Apr 9, 8:20 am)
Low30 °F (Apr 19, 5:50 am)42% (Apr 19, 3:20 pm)29.65 "Hg (Apr 15, 8:20 am)
Average45 °F74%30.08 "Hg
* Reported Apr 9 8:20 am — Apr 24 7:50 am, Neumünster, Weather by CustomWeather, © 2017

Note: Actual official high and low records may vary slightly from our data, if they occured in-between our weather recording intervals... More about our weather records

Advertising

Neumünster Weather History for the Previous 24 Hours

Scroll right to see more
 ConditionsComfort  
Time TempWeatherWind HumidityBarometerVisibility
7:50 am
Mon, Apr 24
41 °FSunny.12 mph76%29.86 "Hg10 mi
7:20 am41 °FBroken clouds.10 mph76%29.89 "HgN/A
6:50 am41 °FBroken clouds.12 mph81%29.89 "HgN/A
6:20 am41 °FMore clouds than sun.13 mph81%29.92 "HgN/A
5:50 am39 °FPassing clouds.12 mph87%29.92 "HgN/A
5:20 am39 °FSprinkles. Mostly cloudy.10 mph87%29.95 "HgN/A
8:50 pm
Sun, Apr 23
41 °FPassing clouds.15 mph66%30.09 "HgN/A
8:20 pm43 °FScattered clouds.16 mph61%30.09 "HgN/A
7:50 pm43 °FScattered clouds.17 mph66%30.09 "HgN/A
7:20 pm45 °FScattered clouds.17 mph57%30.09 "HgN/A
6:50 pm45 °FScattered clouds.18 mph57%30.09 "HgN/A
4:50 pm46 °FScattered clouds.23 mph53%30.07 "HgN/A
4:20 pm46 °FPartly sunny.21 mph53%30.07 "HgN/A
3:20 pm46 °FScattered showers. Partly sunny.18 mph53%30.07 "HgN/A
2:50 pm45 °FScattered clouds.17 mph66%30.07 "HgN/A
2:20 pm46 °FScattered clouds.20 mph46%30.07 "HgN/A
1:50 pm45 °FBroken clouds.20 mph53%30.07 "HgN/A
1:20 pm46 °FScattered clouds.18 mph57%30.07 "HgN/A
12:50 pm45 °FScattered clouds.17 mph66%30.07 "HgN/A
12:20 pm45 °FPartly sunny.20 mph66%30.07 "HgN/A
11:50 am41 °FPartly sunny.16 mph70%30.09 "HgN/A
11:20 am45 °FPartly sunny.18 mph61%30.07 "HgN/A
10:50 am43 °FScattered clouds.18 mph66%30.07 "HgN/A
10:20 am43 °FScattered clouds.16 mph66%30.07 "HgN/A
9:50 am41 °FBroken clouds.17 mph76%30.07 "HgN/A
9:20 am41 °FPartly sunny.20 mph76%30.07 "HgN/A
Weather by CustomWeather, © 2017

See weather overviewHow to use our weather pages